sat.trackr.live / text

‹ back to catalog

STARLINK-2465

NORAD 48124 · 2021-027AJ

PAYLOAD ACTIVE UNKNOWN

§ Identity

Operator
Country
US
Launch date
2021-04-07
Launch site
AFETR
Launch vehicle
Mass (kg)
RCS (m²)

Purposes: comms

External: N2YO · Heavens-Above · Gunter

§ Orbital elements

Epoch: 2026-05-24T13:22:21.476928Z

Period
94.01 min
Inclination
53.1587°
Eccentricity
0.0001272
Mean motion
15.31706362 rev/d
Perigee alt
469.8 km
Apogee alt
471.6 km
Semi-major
6,848.9 km
B*
4.2372e-5
RAAN
162.1039°
Arg perigee
90.0400°
Mean anomaly
270.0747°
Rev number
28,427

§ Raw data

STARLINK-24651 48124U 21027AJ  26144.55719302  .00000950  00000+0  42372-4 0  99952 48124  53.1587 162.1039 0001272  90.0400 270.0747 15.31706362284271

JSON: /api/v1/satellites/48124 · /tle

For live sub-satellite position, see the globe view (requires WebGL).

§ Visibility from observer

Set your observer location to see the next 7 days of passes ≥ 10°. The values pass through the URL so the page stays shareable.

No JS? Fill the form by hand. The geolocation button needs JavaScript.